Weather Service Report


822 
ASUS43 KBIS 062310
RWRBIS

NWR BROADCAST TEXT
NATIONAL WEATHER SERVICE BISMARCK ND
500 PM CST SAT FEB 06 2016

NOTE: "FAIR" INDICATES FEW OR NO CLOUDS BELOW 12,000 FEET WITH NO
SIGNIFICANT WEATHER AND/OR OBSTRUCTIONS TO VISIBILITY.

  
CITY           SKY/WX    TMP DP  RH WIND       PRES   REMARKS
WILLISTON      CLEAR     46  27  47 W29G43    29.63F                  
MINOT          CLEAR     50  26  39 W21G29    29.56F                  
MINOT AFB      CLEAR     47  29  49 W25G33    29.54F                  
BISMARCK       CLOUDY    53  27  36 W17G29    29.68F                  
DICKINSON      CLEAR     45  18  34 W31G39    29.71R                  
GARRISON         N/A     48  24  39 W21G33    29.62F                  
HETTINGER ARPT PTCLDY    47  20  34 W24G36    29.80R                  
JAMESTOWN      LGT RAIN  42  33  70 W22G29    29.68R                  
BEACH          CLOUDY    45  18  33 NW31G43   29.80R                  
CARRINGTON     LGT RAIN  39  39 100 W18G30    29.67R                  
HAZEN          FAIR      50  23  34 W20G25    29.67F                  
LINTON         FAIR      46  32  57 SW7       29.72S                  
MANDAN         MOCLDY    48  27  43 W20       29.69S                  
OAKES          MOCLDY    37  34  87 SW13      29.72R                  
RUGBY          FAIR      37  36  93 SW12      29.54F                  
STANLEY        FAIR      43  28  56 W26G36    29.61S                  
TIOGA          CLOUDY    41  30  65 W28G36    29.63S                  
WATFORD CITY   FAIR      46  25  42 W29G43    29.65F                  
$$
  
CITY           SKY/WX    TMP DP  RH WIND       PRES   REMARKS
GRAND FORKS    CLOUDY    37  32  82 S12       29.58F                  
GRAND FORKS AF CLOUDY    39  31  74 SW13      29.57F                  
DEVILS LAKE    MOCLDY    39  31  72 W24G30    29.58R                  
FARGO          CLOUDY    38  33  82 SW12      29.66S                  
CAVALIER       FAIR      34  32  93 S10       29.51F                  
GRAFTON        FAIR      36  34  93 S12       29.56F                  
GWINNER          N/A     37  34  87 SW14      29.73R                  
LANGDON        FAIR      37  32  81 SW17      29.51S                  
ROLLA          MOCLDY    37  32  81 SW16      29.48F                  
WALHALLA       FAIR      41  32  70 W12G23    29.49F                  
$$
  
CITY           SKY/WX    TMP DP  RH WIND       PRES   REMARKS
ABERDEEN       CLOUDY    41  32  70 S12       29.76F                  
MOBRIDGE       PTCLDY    46  31  55 SE5       29.71                   
BUFFALO          N/A     42  31  64 W28       29.81F                  
RAPID CITY     CLOUDY    48  27  44 N16       29.85R                  
GLASGOW        CLOUDY    39  28  64 W26G36    29.81R                  
SIDNEY         CLEAR     46  21  36 W30G45    29.72R                  
WOLF POINT     MOCLDY    42  31  64 W26G40    29.78R                  
GLENDIVE       CLOUDY    46  19  34 W33G46    29.81R                  
MILES CITY     SUNNY     48  20  32 NW40G53   29.89R                  
BAKER          MOCLDY    47  14  26 W31G47    29.82S                  
$$
  
CITY           SKY/WX    TMP DP  RH WIND       PRES   REMARKS
BILLINGS       CLOUDY    42  12  29 NW24G31   30.03R                  
GREAT FALLS    CLOUDY    39  16  39 W26G35    30.05R                  
REGINA         LGT RAIN  36  34  93 NW24G41   29.55R                  
ESTEVAN        CLOUDY    39  34  81 W23G36    29.53R                  
$$

  


824 
ASUS43 KBIS 062310
RWRND 

NORTH DAKOTA REGIONAL WEATHER ROUNDUP
NATIONAL WEATHER SERVICE BISMARCK ND
500 PM CST SAT FEB 06 2016

NOTE: "FAIR" INDICATES FEW OR NO CLOUDS BELOW 12,000 FEET WITH NO
SIGNIFICANT WEATHER AND/OR OBSTRUCTIONS TO VISIBILITY.


NDZ001>003-009>011-017-070000-
NORTHWEST NORTH DAKOTA
  
CITY           SKY/WX    TMP DP  RH WIND       PRES   REMARKS
WILLISTON      CLEAR     46  27  47 W29G43    29.63F                  
MINOT          CLEAR     50  26  39 W21G29    29.56F                  
MINOT AFB      CLEAR     47  29  49 W25G33    29.54F                  
$$
 
NDZ018>021-031>035-040>046-070000-
SOUTHWEST NORTH DAKOTA
  
CITY           SKY/WX    TMP DP  RH WIND       PRES   REMARKS
BISMARCK       CLOUDY    53  27  36 W17G29    29.68F                  
DICKINSON      CLEAR     45  18  34 W31G39    29.71R                  
GARRISON         N/A     48  24  39 W21G33    29.62F                  
HETTINGER ARPT PTCLDY    47  20  34 W24G36    29.80R                  
$$
 
NDZ004>008-012>016-024-026-027-054-070000-
NORTHEAST NORTH DAKOTA
  
CITY           SKY/WX    TMP DP  RH WIND       PRES   REMARKS
GRAND FORKS    CLOUDY    37  32  82 S12       29.58F                  
GRND FRKS AFB  CLOUDY    39  31  74 SW13      29.57F                  
DEVILS LAKE    MOCLDY    39  31  72 W24G30    29.58R                  
$$
 
NDZ022-023-025-028>030-036>039-047>053-070000-
SOUTHEAST NORTH DAKOTA
  
CITY           SKY/WX    TMP DP  RH WIND       PRES   REMARKS
FARGO          CLOUDY    38  33  82 SW12      29.66S                  
JAMESTOWN      LGT RAIN  42  33  70 W22G29    29.68R                  
$$ 

  

Return to Home page


Western Regional Climate Center, wrcc@dri.edu